Location: Krasnoyarskiy Pitomnik
(51.1333°N, 71.6167°E)
Time: 00:17:19
(UTC+00:00)

NOSS 2-2 (C) - Pass Details

Date: 02 June 2022
Orbit: 439 x 1763 km, 63.3° (Epoch: 02 June)

Event Time Altitude Azimuth Distance (km) Brightness Sun altitude
Rises 18:59:24 0° 308° (NW) 3,050 7.7 -16.6°
Reaches altitude 10° 19:01:42 10° 297° (WNW) 2,293 6.8 -16.6°
Maximum altitude 19:06:15 30° 237° (WSW) 1,606 5.4 -16.6°
Enters shadow 19:08:54 22° 201° (SSW) 2,052 5.6 -16.6°
